GW5187 Weather Reports


Display with metric or nautical units.
time (UTC)temp
F
wind
direction
speed
MPH
gust
MPH
rain 1hr
in
rain 24hr
in
rain mn
in
humidity
%
barometer
mb
20260901132510 55 51 0.0 0.0 0.00 0.00 0.00 80 1016.3
20260901132009 55 336 0.0 0.0 0.00 0.00 0.00 80 1016.2
20260901131520 55 248 0.0 0.0 0.00 0.00 0.00 80 1016.1
20260901131010 55 50 0.0 0.0 0.00 0.00 0.00 80 1016.1
20260901130512 55 128 0.0 0.0 0.00 0.00 0.00 81 1016.1
20260901130037 55 103 0.0 0.0 0.00 0.00 0.00 81 1016.1
20260901125514 55 169 0.0 0.0 0.00 0.00 0.00 80 1016.1
20260901125016 55 169 0.0 0.0 0.00 0.00 0.00 80 1016.2
20260901124532 55 131 0.0 0.0 0.00 0.00 0.00 80 1016.2
20260901124015 55 208 0.0 0.0 0.00 0.00 0.00 80 1016.2
20260901123506 55 208 0.0 0.0 0.00 0.00 0.00 80 1016.1
20260901123019 55 215 0.0 0.0 0.00 0.00 0.00 81 1016.1
20260901122506 55 144 0.0 0.0 0.00 0.00 0.00 81 1016.0
20260901122007 55 139 0.0 0.0 0.00 0.00 0.00 81 1015.9
20260901121519 55 96 0.0 0.0 0.00 0.00 0.00 82 1016.0
20260901121012 55 148 0.0 0.0 0.00 0.00 0.00 82 1016.0
20260901120510 55 133 0.0 0.0 0.00 0.00 0.00 82 1016.0
20260901120042 55 176 0.0 0.0 0.00 0.00 0.00 82 1015.9
20260901115512 55 176 0.0 0.0 0.00 0.00 0.00 82 1016.0
20260901115016 55 176 0.0 0.0 0.00 0.00 0.00 82 1015.9
20260901114530 55 176 0.0 0.0 0.00 0.00 0.00 82 1015.9
20260901114016 55 176 0.0 0.0 0.00 0.00 0.00 82 1016.1
20260901113515 55 176 0.0 0.0 0.00 0.00 0.00 82 1016.1
20260901113035 54 176 0.0 0.0 0.00 0.00 0.00 82 1016.0
20260901112515 54 176 0.0 0.0 0.00 0.00 0.00 82 1016.1
20260901112007 55 176 0.0 0.0 0.00 0.00 0.00 82 1016.1
20260901111515 55 176 0.0 0.0 0.00 0.00 0.00 81 1016.1
20260901111008 55 176 0.0 0.0 0.00 0.00 0.00 81 1016.0
20260901110511 55 176 0.0 0.0 0.00 0.00 0.00 81 1015.9
20260901110019 55 176 0.0 0.0 0.00 0.00 0.00 81 1015.9
20260901105511 55 176 0.0 0.0 0.00 0.00 0.00 81 1015.8
20260901105015 55 176 0.0 0.0 0.00 0.00 0.00 81 1015.9
20260901104528 55 176 0.0 0.0 0.00 0.00 0.00 81 1015.8
20260901104017 55 176 0.0 0.0 0.00 0.00 0.00 81 1015.7
20260901103518 55 176 0.0 0.0 0.00 0.00 0.00 81 1015.7
20260901103035 55 176 0.0 1.0 0.00 0.00 0.00 81 1015.6
20260901102517 55 176 0.0 2.0 0.00 0.00 0.00 81 1015.7
20260901102016 55 176 0.0 2.0 0.00 0.00 0.00 81 1015.7
20260901101533 55 176 0.0 2.0 0.00 0.00 0.00 82 1015.7
20260901101008 55 251 0.0 2.0 0.00 0.00 0.00 81 1015.7
20260901100508 55 251 0.0 1.0 0.00 0.00 0.00 80 1015.7
20260901100018 55 251 0.0 0.0 0.00 0.00 0.00 80 1015.7
20260901095509 55 251 0.0 0.0 0.00 0.00 0.00 80 1015.7
20260901095010 55 251 0.0 0.0 0.00 0.00 0.00 79 1015.7
20260901094528 56 251 0.0 2.0 0.00 0.00 0.00 79 1015.7
20260901094013 56 251 0.0 2.0 0.00 0.00 0.00 79 1015.7
20260901093516 56 251 0.0 1.0 0.00 0.00 0.00 80 1015.8
20260901093030 56 251 0.0 1.0 0.00 0.00 0.00 79 1015.8
20260901092504 56 251 0.0 2.0 0.00 0.00 0.00 80 1015.7
20260901092004 56 251 0.0 2.0 0.00 0.00 0.00 81 1015.8
20260901091510 56 275 0.0 2.0 0.00 0.00 0.00 82 1015.8
20260901091006 56 115 0.0 0.0 0.00 0.00 0.00 1015.7
20260901090507 56 115 0.0 0.0 0.00 0.00 0.00 84 1015.7
20260901090015 56 115 0.0 0.0 0.00 0.00 0.00 84 1015.7
20260901085509 57 115 0.0 0.0 0.00 0.00 0.00 84 1015.7
20260901085009 57 115 0.0 0.0 0.00 0.00 0.00 85 1015.6
20260901084517 57 115 0.0 0.0 0.00 0.00 0.00 85 1015.7
20260901084011 57 115 0.0 0.0 0.00 0.00 0.00 85 1015.7
20260901083512 57 115 0.0 0.0 0.00 0.00 0.00 85 1015.8
20260901083027 57 115 0.0 0.0 0.00 0.00 0.00 85 1015.8
20260901082514 57 115 0.0 0.0 0.00 0.00 0.00 86 1015.8
20260901082014 57 115 0.0 0.0 0.00 0.00 0.00 86 1015.9
20260901081509 57 115 0.0 0.0 0.00 0.00 0.00 87 1015.9
20260901081011 57 216 0.0 2.0 0.00 0.00 0.00 87 1015.9
20260901080505 57 216 0.0 2.0 0.00 0.00 0.00 87 1015.9
20260901080009 57 216 0.0 2.0 0.00 0.00 0.00 87 1015.8
20260901075508 57 216 0.0 2.0 0.00 0.00 0.00 87 1015.8
20260901075006 57 216 0.0 2.0 0.00 0.00 0.00 88 1015.9
20260901074517 57 259 0.0 2.0 0.00 0.00 0.00 88 1016.0
20260901074009 57 225 1.0 3.0 0.00 0.00 0.00 88 1015.9
20260901073510 57 215 2.0 3.0 0.00 0.00 0.00 88 1015.9
20260901073024 57 232 1.0 2.0 0.00 0.00 0.00 88 1016.0
20260901072513 57 232 0.0 2.0 0.00 0.00 0.00 88 1015.9
20260901072014 57 313 0.0 2.0 0.00 0.00 0.00 89 1015.9
20260901071531 57 246 0.0 2.0 0.00 0.00 0.00 89 1015.9
20260901071018 57 246 0.0 3.0 0.00 0.00 0.00 89 1015.9
20260901070504 57 246 0.0 3.0 0.00 0.00 0.00 89 1016.0
20260901070020 57 226 1.0 2.0 0.00 0.00 0.00 89 1016.0
20260901065506 57 209 0.0 2.0 0.00 0.00 0.00 89 1016.0
20260901065008 57 213 0.0 2.0 0.00 0.00 0.00 88 1016.0
20260901064516 57 233 0.0 2.0 0.00 0.00 0.00 88 1016.0
20260901064007 57 217 0.0 2.0 0.00 0.00 0.00 88 1016.0
20260901063511 57 217 1.0 2.0 0.00 0.00 0.00 88 1016.1
20260901063026 57 243 0.0 2.0 0.00 0.00 0.00 88 1016.1
20260901062510 57 243 0.0 2.0 0.00 0.00 0.00 88 1016.2
20260901062013 57 238 1.0 2.0 0.00 0.00 0.00 87 1016.1
20260901061528 57 218 0.0 2.0 0.00 0.00 0.00 87 1016.0
20260901061014 57 218 0.0 2.0 0.00 0.00 0.00 87 1016.1
20260901060517 57 218 0.0 2.0 0.00 0.00 0.00 87 1016.2
20260901060033 57 239 1.0 2.0 0.00 0.00 0.00 87 1016.2
20260901055521 57 207 1.0 2.0 0.00 0.00 0.00 87 1016.2
20260901055011 57 300 1.0 3.0 0.00 0.00 0.00 87 1016.2
20260901054514 57 236 0.0 5.0 0.00 0.00 0.00 86 1016.1
20260901054008 57 225 1.0 5.0 0.00 0.00 0.00 86 1016.3
20260901053510 57 194 2.0 5.0 0.00 0.00 0.00 86 1016.2
20260901053019 57 221 1.0 2.0 0.00 0.00 0.00 85 1016.2
20260901052510 57 265 0.0 1.0 0.00 0.00 0.00 85 1016.2
20260901052010 57 265 0.0 3.0 0.00 0.00 0.00 85 1016.3
20260901051525 57 282 0.0 3.0 0.00 0.00 0.00 85 1016.3
20260901051014 57 229 1.0 3.0 0.00 0.00 0.00 84 1016.3
20260901050513 57 217 0.0 3.0 0.00 0.00 0.00 84 1016.3
20260901050030 57 211 1.0 3.0 0.00 0.00 0.00 84 1016.2
20260901045514 57 212 0.0 2.0 0.00 0.00 0.00 84 1016.2
20260901045017 57 248 0.0 2.0 0.00 0.00 0.00 84 1016.2
20260901044539 57 248 0.0 2.0 0.00 0.00 0.00 84 1016.1
20260901044008 57 248 1.0 3.0 0.00 0.00 0.00 84 1016.1
20260901043510 57 248 1.0 3.0 0.00 0.00 0.00 84 1016.0
20260901043017 57 227 0.0 3.0 0.00 0.00 0.00 84 1016.0
20260901042508 57 218 1.0 4.0 0.00 0.00 0.00 84 1015.9
20260901042011 57 225 1.0 4.0 0.00 0.00 0.00 84 1015.7
20260901041522 57 284 2.0 4.0 0.00 0.00 0.00 1015.7
20260901041012 57 203 0.0 3.0 0.00 0.00 0.00 84 1015.6
20260901040514 57 204 1.0 4.0 0.00 0.00 0.00 84 1015.6
20260901040026 57 216 2.0 4.0 0.00 0.00 0.00 84 1015.5
20260901035513 58 220 1.0 3.0 0.00 0.00 0.00 83 1015.4
20260901035014 58 211 1.0 4.0 0.00 0.00 0.00 83 1015.3
20260901034531 58 242 2.0 4.0 0.00 0.00 0.00 83 1015.2
20260901034017 58 200 1.0 4.0 0.00 0.00 0.00 83 1015.3
20260901033518 58 222 1.0 5.0 0.00 0.00 0.00 83 1015.2
20260901033014 58 194 3.0 5.0 0.00 0.00 0.00 83 1015.3
20260901032508 58 219 2.0 5.0 0.00 0.00 0.00 83 1015.2
20260901032009 58 248 1.0 5.0 0.00 0.00 0.00 83 1015.2
20260901031523 58 237 3.0 8.0 0.00 0.00 0.00 83 1015.2
20260901031011 58 170 3.0 8.0 0.00 0.00 0.00 83 1015.3
20260901030511 58 215 2.0 6.0 0.00 0.00 0.00 82 1015.2
20260901030024 58 204 1.0 6.0 0.00 0.00 0.00 82 1015.2
20260901025513 58 250 2.0 5.0 0.00 0.00 0.00 82 1015.0
20260901025014 58 270 2.0 3.0 0.00 0.00 0.00 82 1014.9
20260901024532 58 229 1.0 4.0 0.00 0.00 0.00 82 1014.9
20260901024016 58 259 0.0 4.0 0.00 0.00 0.00 81 1014.9
20260901023513 58 234 1.0 6.0 0.00 0.00 0.00 81 1014.8
20260901023043 58 230 3.0 10.0 0.00 0.00 0.00 81 1014.9
20260901022515 58 203 3.0 10.0 0.00 0.00 0.00 81 1014.9
20260901022015 59 239 2.0 8.0 0.00 0.00 0.00 80 1015.0
20260901021523 59 231 3.0 8.0 0.00 0.00 0.00 80 1015.0
20260901021009 59 237 3.0 9.0 0.00 0.00 0.00 79 1015.0
20260901020510 59 205 4.0 9.0 0.00 0.00 0.00 79 1015.0
20260901020025 59 263 3.0 8.0 0.00 0.00 0.00 79 1014.8
20260901015511 60 260 3.0 8.0 0.00 0.00 0.00 78 1014.9
20260901015014 60 241 4.0 9.0 0.00 0.00 0.00 78 1014.8
20260901014528 59 211 2.0 11.0 0.00 0.00 0.00 78 1014.8
20260901014015 59 217 3.0 11.0 0.00 0.00 0.00 77 1014.9
20260901013516 60 227 5.0 11.0 0.00 0.00 0.00 77 1014.9
20260901013031 60 242 4.0 11.0 0.00 0.00 0.00 76 1014.9
20260901012513 60 238 4.0 11.0 0.00 0.00 0.00 77 1014.9
20260901012018 60 209 5.0 11.0 0.00 0.00 0.00 76 1014.9
20260901011534 60 257 3.0 13.0 0.00 0.00 0.00 76 1014.8
20260901011018 60 291 2.0 14.0 0.00 0.00 0.00 76 1014.8
20260901010510 60 205 7.0 14.0 0.00 0.00 0.00 75 1015.0
20260901010018 61 208 4.0 13.0 0.00 0.00 0.00 75 1014.9
20260901005512 61 244 4.0 13.0 0.00 0.00 0.00 74 1015.0
20260901005013 62 228 5.0 12.0 0.00 0.00 0.00 72 1015.0
20260901004532 62 217 7.0 15.0 0.00 0.00 0.00 71 1015.1
20260901004014 63 205 7.0 15.0 0.00 0.00 0.00 70 1015.0
20260901003512 64 161 7.0 13.0 0.00 0.00 0.00 68 1014.9
20260901003031 64 270 5.0 14.0 0.00 0.00 0.00 70 1015.0
20260901002517 64 221 7.0 14.0 0.00 0.00 0.00 69 1015.0
20260901002007 65 221 6.0 10.0 0.00 0.00 0.00 68 1014.9
20260901001511 65 209 4.0 12.0 0.00 0.00 0.00 68 1014.7
20260901001009 65 234 3.0 12.0 0.00 0.00 0.00 68 1014.7
20260901000506 65 226 6.0 12.0 0.00 0.00 0.00 67 1014.7
20260901000018 65 261 7.0 13.0 0.00 0.00 0.00 66 1014.7
20260831235510 65 165 7.0 14.0 0.00 0.00 0.00 66 1014.7
20260831235010 65 225 7.0 14.0 0.00 0.00 0.00 66 1014.9
20260831234525 65 170 7.0 15.0 0.00 0.00 0.00 67 1014.9
20260831234014 65 210 7.0 15.0 0.00 0.00 0.00 67 1014.9
20260831233512 64 236 8.0 18.0 0.00 0.00 0.00 67 1014.9
20260831233030 66 229 6.0 18.0 0.00 0.00 0.00 65 1014.9
20260831232515 66 232 3.0 14.0 0.00 0.00 0.00 66 1014.8
20260831232019 66 233 6.0 11.0 0.00 0.00 0.00 65 1014.8
20260831231533 66 215 6.0 17.0 0.00 0.00 0.00 66 1014.8
20260831231007 66 234 7.0 17.0 0.00 0.00 0.00 66 1014.7
20260831230506 66 329 5.0 17.0 0.00 0.00 0.00 66 1014.8
20260831230016 66 210 7.0 14.0 0.00 0.00 0.00 64 1014.8
20260831225508 66 198 7.0 14.0 0.00 0.00 0.00 64 1014.7
20260831225009 66 226 5.0 13.0 0.00 0.00 0.00 65 1014.7
20260831224524 66 236 8.0 13.0 0.00 0.00 0.00 66 1014.9
20260831224011 66 233 5.0 15.0 0.00 0.00 0.00 66 1014.9
20260831223514 66 217 8.0 14.0 0.00 0.00 0.00 66 1015.0
20260831223027 67 229 6.0 13.0 0.00 0.00 0.00 65 1015.0
20260831222516 66 229 6.0 15.0 0.00 0.00 0.00 66 1015.0
20260831222015 66 225 7.0 16.0 0.00 0.00 0.00 65 1015.0
20260831221532 66 214 4.0 16.0 0.00 0.00 0.00 66 1015.1
20260831221015 66 209 7.0 16.0 0.00 0.00 0.00 66 1015.1
20260831220514 67 250 5.0 14.0 0.00 0.00 0.00 65 1015.1
20260831220012 67 283 5.0 13.0 0.00 0.00 0.00 65 1015.2
20260831215508 67 194 7.0 13.0 0.00 0.00 0.00 64 1015.3
20260831215010 67 234 6.0 12.0 0.00 0.00 0.00 65 1015.5
20260831214517 67 242 7.0 14.0 0.00 0.00 0.00 64 1015.4
20260831214011 67 186 9.0 14.0 0.00 0.00 0.00 63 1015.3
20260831213511 68 225 4.0 14.0 0.00 0.00 0.00 61 1015.5
20260831213028 69 234 5.0 12.0 0.00 0.00 0.00 61 1015.5
20260831212512 68 284 3.0 12.0 0.00 0.00 0.00 62 1015.5
20260831212015 68 223 2.0 15.0 0.00 0.00 0.00 62 1015.6
20260831211531 67 205 1.0 15.0 0.00 0.00 0.00 65 1015.7
20260831211015 67 288 4.0 10.0 0.00 0.00 0.00 64 1015.7
20260831210513 66 266 3.0 10.0 0.00 0.00 0.00 65 1015.7
20260831210034 66 292 4.0 12.0 0.00 0.00 0.00 65 1015.7
20260831205518 66 273 6.0 12.0 0.00 0.00 0.00 64 1015.6
20260831205008 68 263 4.0 10.0 0.00 0.00 0.00 62 1015.6
20260831204518 68 275 2.0 8.0 0.00 0.00 0.00 63 1015.6
20260831204008 68 39 2.0 8.0 0.00 0.00 0.00 63 1015.6
20260831203511 67 253 3.0 8.0 0.00 0.00 0.00 63 1015.6
20260831203025 67 210 3.0 12.0 0.00 0.00 0.00 64 1015.6
20260831202511 67 288 3.0 12.0 0.00 0.00 0.00 64 1015.7
20260831202015 67 222 3.0 10.0 0.00 0.00 0.00 64 1015.6
20260831201530 67 281 4.0 10.0 0.00 0.00 0.00 64 1015.6
20260831201015 67 26 3.0 9.0 0.00 0.00 0.00 64 1015.8
20260831200516 68 281 5.0 9.0 0.00 0.00 0.00 64 1015.7
20260831200040 67 213 2.0 6.0 0.00 0.00 0.00 65 1015.6
20260831195517 67 192 1.0 9.0 0.00 0.00 0.00 66 1015.7
20260831195021 66 223 5.0 10.0 0.00 0.00 0.00 66 1015.7
20260831194532 66 194 2.0 10.0 0.00 0.00 0.00 67 1015.9
20260831194007 65 225 5.0 15.0 0.00 0.00 0.00 68 1016.0
20260831193510 64 232 3.0 15.0 0.00 0.00 0.00 68 1016.0
20260831193033 65 209 2.0 15.0 0.00 0.00 0.00 69 1016.1
20260831192512 64 212 4.0 15.0 0.00 0.00 0.00 69 1016.1
20260831192011 65 219 3.0 9.0 0.00 0.00 0.00 68 1016.1
20260831191534 65 227 3.0 8.0 0.00 0.00 0.00 69 1016.2
20260831191011 64 212 3.0 9.0 0.00 0.00 0.00 70 1016.2
20260831190516 63 203 4.0 9.0 0.00 0.00 0.00 71 1016.3
20260831190031 63 214 3.0 8.0 0.00 0.00 0.00 72 1016.4
20260831185516 62 237 2.0 8.0 0.00 0.00 0.00 74 1016.4
20260831185019 61 250 3.0 8.0 0.00 0.00 0.00 74 1016.5
20260831184531 61 200 2.0 8.0 0.00 0.00 0.00 75 1016.5
20260831184018 61 212 4.0 8.0 0.00 0.00 0.00 75 1016.4
20260831183520 61 184 2.0 8.0 0.00 0.00 0.00 76 1016.4
20260831183018 60 209 3.0 8.0 0.00 0.00 0.00 77 1016.5
20260831182510 60 220 3.0 9.0 0.00 0.00 0.00 78 1016.5
20260831182012 60 227 3.0 9.0 0.00 0.00 0.00 77 1016.6
20260831181526 60 238 3.0 7.0 0.00 0.00 0.00 77 1016.6
20260831181013 60 233 5.0 7.0 0.00 0.00 0.00 77 1016.5
20260831180514 60 29 2.0 7.0 0.00 0.00 0.00 77 1016.5
20260831180041 60 213 4.0 7.0 0.00 0.00 0.00 76 1016.5
20260831175512 60 309 0.0 4.0 0.00 0.00 0.00 77 1016.4
20260831175014 60 107 1.0 4.0 0.00 0.00 0.00 77 1016.4
20260831174534 59 292 0.0 4.0 0.00 0.00 0.00 78 1016.4
20260831174016 59 209 1.0 5.0 0.00 0.00 0.00 78 1016.4
20260831173518 59 174 1.0 5.0 0.00 0.00 0.00 79 1016.3
20260831173033 59 220 1.0 4.0 0.00 0.00 0.00 79 1016.3
20260831172515 59 206 3.0 4.0 0.00 0.00 0.00 79 1016.3
20260831172009 59 248 2.0 4.0 0.00 0.00 0.00 80 1016.3
20260831171524 58 130 0.0 4.0 0.00 0.00 0.00 81 1016.2
20260831171010 58 186 0.0 4.0 0.00 0.00 0.00 81 1016.2
20260831170515 58 109 2.0 4.0 0.00 0.00 0.00 82 1016.2
20260831170028 57 93 1.0 5.0 0.00 0.00 0.00 82 1016.1
20260831165511 57 181 0.0 5.0 0.00 0.00 0.00 83 1016.2
20260831165013 57 94 1.0 3.0 0.00 0.00 0.00 84 1016.1
20260831164545 56 111 1.0 5.0 0.00 0.00 0.00 84 1016.0
20260831164013 56 184 1.0 6.0 0.00 0.00 0.00 84 1016.0
20260831163517 56 90 1.0 6.0 0.00 0.00 0.00 85 1016.0
20260831163034 56 158 1.0 6.0 0.00 0.00 0.00 85 1016.0
20260831162517 55 122 2.0 6.0 0.00 0.00 0.00 86 1016.0
20260831162015 55 319 0.0 4.0 0.00 0.00 0.00 1016.1
20260831161534 55 108 2.0 4.0 0.00 0.00 0.00 1016.0
20260831161016 55 175 1.0 7.0 0.00 0.00 0.00 1016.0
20260831160511 54 203 2.0 7.0 0.00 0.00 0.00 89 1016.0
20260831160024 54 85 0.0 5.0 0.00 0.00 0.00 89 1016.0
20260831155511 54 38 0.0 5.0 0.00 0.00 0.00 89 1016.0
20260831155002 54 110 0.0 4.0 0.00 0.00 0.00 90 1015.9
20260831154516 54 56 0.0 2.0 0.00 0.00 0.00 90 1016.0
20260831154003 53 13 1.0 5.0 0.00 0.00 0.00 90 1015.9
20260831153505 53 360 0.0 5.0 0.00 0.00 0.00 91 1015.9
20260831153008 53 12 1.0 3.0 0.00 0.00 0.00 91 1015.8
20260831152506 53 126 0.0 3.0 0.00 0.00 0.00 91 1015.8
20260831152007 53 271 0.0 9.0 0.00 0.00 0.00 91 1015.9
20260831151516 53 360 0.0 9.0 0.00 0.00 0.00 91 1015.8
20260831151007 53 78 2.0 9.0 0.00 0.00 0.00 92 1015.7
20260831150510 53 249 1.0 4.0 0.00 0.00 0.00 92 1015.7
20260831150022 52 174 0.0 4.0 0.00 0.00 0.00 92 1015.6
20260831145511 52 41 0.0 5.0 0.00 0.00 0.00 92 1015.5
20260831145013 52 123 1.0 5.0 0.00 0.00 0.00 92 1015.5
20260831144527 52 298 0.0 4.0 0.00 0.00 0.00 93 1015.5
20260831144002 52 41 1.0 3.0 0.00 0.00 0.00 93 1015.5
20260831143501 52 57 0.0 3.0 0.00 0.00 0.00 93 1015.4
20260831143018 52 299 0.0 3.0 0.00 0.00 0.00 93 1015.3
20260831142504 52 293 1.0 3.0 0.00 0.00 0.00 93 1015.3
20260831142006 52 279 2.0 4.0 0.00 0.00 0.00 94 1015.2
20260831141511 52 43 1.0 4.0 0.00 0.00 0.00 93 1015.2
20260831141007 53 283 0.0 3.0 0.00 0.00 0.00 94 1015.2
20260831140505 53 256 0.0 3.0 0.00 0.00 0.00 94 1015.1
20260831140018 53 84 0.0 0.0 0.00 0.00 0.00 94 1015.2
20260831135508 53 71 0.0 2.0 0.00 0.00 0.00 94 1015.2
20260831135013 53 231 0.0 2.0 0.00 0.00 0.00 94 1015.1
20260831134527 53 174 0.0 0.0 0.00 0.00 0.00 94 1015.0
20260831134012 53 168 0.0 0.0 0.00 0.00 0.00 94 1015.0
20260831133516 53 168 0.0 2.0 0.00 0.00 0.00 94 1014.9
20260831133030 53 168 0.0 2.0 0.00 0.00 0.00 94 1014.9